Voltar ao catálogo

DEB FREGAT

AtivoComunicaçõesSSO
NORAD 67249·PAYLOAD·🇷🇺 Russia
Este nome de satélite ainda não foi confirmado por fontes oficiais.

Lançado Dec 28, 2025 de Vostochny Cosmodrome

Loading…

Próximas Passagens (próximas 24 horas)

TLE

AtualizadoSource: Space-Track

Época: Sep 14, 2026, 09:49 UTC

1 67249U 25313B   26257.40906082  .00002093  00000-0  16061-3 0  9994
2 67249  97.5019 316.4458 0292158  45.1941 317.2624 14.74681186 38285

Acompanhe DEB FREGAT em tempo real com AllMySat

Download on the App Store